Flag for U.S.A. Weather past 2 weeks in Anchorage, Alaska, U.S.A.

Now
40 °F

Clear.


Feels Like: 40 °F
Forecast: 46 / 62 °F
Wind: No wind

Location: Lake Hood Seaplane

Current Time: Sep 2, 2015 at 8:00:56 AM

Latest Report: Sep 2, 2015 at 6:53 AM


Visibility: 10 mi

Pressure: 30.04 "Hg

Humidity: 80%

Dew point: 34 °F

Location of AnchorageLocation

Historic Weather in Anchorage — Graph

°F

Anchorage temperature yesterday

Maximum temperature yesterday: 62 °F (at 4:53 PM)
Minimum temperature yesterday: 45 °F (at 3:53 AM)
Average temperature yesterday: 53 °F

Past Weeks' High & Low Weather Summary

 TemperatureHumidityPressure
High71 °F (Aug 18, 5:53 PM)90% (Aug 18, 6:53 AM)30.20 "Hg (Aug 18, 6:53 AM)
Low40 °F (Sep 2, 6:53 AM)27% (Aug 28, 2:53 PM)29.27 "Hg (Aug 29, 11:53 PM)
Average56 °F56%29.82 "Hg
* Reported Aug 18 6:04 AM — Sep 2 6:53 AM, Anchorage, Weather by CustomWeather, © 2015

Note: Actual official high and low records may vary slightly from our data, if they occured in-between our weather recording intervals... More about our weather records

Advertising

Anchorage weather history for previous 24 hours

 ConditionsComfort  
Time TempWeatherWind HumidityBarometerVisibility
6:53 AM
Wed, Sep 2
40 °FClear.No wind80%30.04 "Hg10 mi
5:53 AM41 °FClear.No wind82%30.04 "Hg10 mi
4:53 AM45 °FClear.No wind65%30.05 "Hg10 mi
3:53 AM47 °FClear.3 mph77%30.03 "Hg10 mi
2:53 AM43 °FClear.No wind79%30.03 "Hg10 mi
1:53 AM45 °FClear.5 mph74%30.03 "Hg9 mi
12:53 AM46 °FClear.No wind73%30.02 "Hg10 mi
11:53 PM
Tue, Sep 1
49 °FClear.3 mph66%30.03 "Hg10 mi
10:53 PM51 °FClear.3 mph63%30.02 "Hg10 mi
9:53 PM56 °FSunny.8 mph62%30.02 "Hg10 mi
8:53 PM57 °FSunny.7 mph49%30.01 "Hg10 mi
7:53 PM59 °FSunny.7 mph41%30.00 "Hg10 mi
6:53 PM61 °FSunny.6 mph36%29.99 "Hg10 mi
5:53 PM62 °FSunny.5 mph38%29.99 "Hg10 mi
4:53 PM62 °FSunny.5 mph34%29.99 "Hg10 mi
3:53 PM61 °FSunny.6 mph36%30.00 "Hg10 mi
2:53 PM61 °FSunny.No wind30%30.00 "Hg10 mi
12:53 PM58 °FSunny.10 mph35%30.00 "Hg10 mi
11:53 AM57 °FSunny.12 mph36%30.00 "Hg10 mi
10:53 AM53 °FSunny.6 mph45%30.00 "Hg10 mi
9:53 AM51 °FSunny.5 mph48%29.99 "Hg10 mi
8:53 AM48 °FSunny.3 mph52%29.99 "Hg10 mi
Weather by CustomWeather, © 2015

See weather overviewHow to use our weather pages